| time (UTC) | temp F | wind direction | speed MPH | gust MPH | rain 1hr in | rain 24hr in | rain mn in | humidity % | barometer mb |
| 20260831101323 | 51 | 355 | 0.0 | 0.0 | 0.00 | 0.00 | 0.00 | 85 | 1008.4 |
| 20260831100324 | 51 | 355 | 0.0 | 0.0 | 0.00 | 0.00 | 0.00 | 85 | 1008.4 |
| 20260831095322 | 51 | 355 | 0.0 | 0.0 | 0.00 | 0.00 | 0.00 | 84 | 1008.6 |
| 20260831094319 | 51 | 355 | 0.0 | 0.0 | 0.00 | 0.00 | 0.00 | 82 | 1008.7 |
| 20260831093323 | 51 | 355 | 0.0 | 0.0 | 0.00 | 0.00 | 0.00 | 81 | 1008.7 |
| 20260831092322 | 52 | 355 | 0.0 | 0.0 | 0.00 | 0.00 | 0.00 | 80 | 1008.7 |
| 20260831091322 | 52 | 355 | 0.0 | 0.0 | 0.00 | 0.00 | 0.00 | 80 | 1008.8 |
| 20260831090321 | 52 | 355 | 0.0 | 0.0 | 0.00 | 0.00 | 0.00 | 78 | 1008.8 |
| 20260831085320 | 53 | 355 | 0.0 | 0.0 | 0.00 | 0.00 | 0.00 | 79 | 1008.8 |
| 20260831084339 | 53 | 355 | 0.0 | 0.0 | 0.00 | 0.00 | 0.00 | 80 | 1008.8 |
| 20260831083318 | 54 | 355 | 0.0 | 0.0 | 0.00 | 0.00 | 0.00 | 80 | 1008.8 |
| 20260831082318 | 54 | 355 | 0.0 | 0.0 | 0.00 | 0.00 | 0.00 | 79 | 1008.8 |
| 20260831081317 | 54 | 355 | 0.0 | 0.0 | 0.00 | 0.00 | 0.00 | 80 | 1008.9 |
| 20260831080338 | 55 | 355 | 0.0 | 0.0 | 0.00 | 0.00 | 0.00 | 80 | 1008.9 |
| 20260831075316 | 55 | 355 | 0.0 | 0.0 | 0.00 | 0.00 | 0.00 | 78 | 1009.1 |
| 20260831074314 | 55 | 355 | 0.0 | 0.0 | 0.00 | 0.00 | 0.00 | 77 | 1009.2 |
| 20260831073335 | 56 | 355 | 0.0 | 0.0 | 0.00 | 0.00 | 0.00 | 76 | 1009.2 |
| 20260831072331 | 56 | 355 | 0.0 | 0.0 | 0.00 | 0.00 | 0.00 | 74 | 1009.2 |
| 20260831071330 | 56 | 355 | 0.0 | 0.0 | 0.00 | 0.00 | 0.00 | 71 | 1009.3 |
| 20260831070312 | 57 | 355 | 0.0 | 0.0 | 0.00 | 0.00 | 0.00 | 69 | 1009.3 |
| 20260831065330 | 57 | 355 | 0.0 | 0.0 | 0.00 | 0.00 | 0.00 | 69 | 1009.5 |
| 20260831064330 | 58 | 355 | 0.0 | 0.0 | 0.00 | 0.00 | 0.00 | 67 | 1009.5 |
| 20260831063328 | 58 | 355 | 0.0 | 0.0 | 0.00 | 0.00 | 0.00 | 67 | 1009.5 |
| 20260831062311 | 59 | 355 | 0.0 | 0.0 | 0.00 | 0.00 | 0.00 | 67 | 1009.5 |
| 20260831061330 | 59 | 355 | 0.0 | 0.0 | 0.00 | 0.00 | 0.00 | 67 | 1009.7 |
| 20260831060330 | 60 | 355 | 0.0 | 0.0 | 0.00 | 0.00 | 0.00 | 66 | 1009.7 |
| 20260831055329 | 60 | 355 | 0.0 | 0.0 | 0.00 | 0.00 | 0.00 | 67 | 1009.8 |
| 20260831054329 | 61 | 355 | 0.0 | 0.0 | 0.00 | 0.00 | 0.00 | 65 | 1009.9 |
| 20260831053349 | 61 | 355 | 0.0 | 0.0 | 0.00 | 0.00 | 0.00 | 64 | 1009.9 |
| 20260831052324 | 62 | 355 | 0.0 | 0.0 | 0.00 | 0.00 | 0.00 | 63 | 1009.9 |
| 20260831051323 | 62 | 355 | 0.0 | 0.0 | 0.00 | 0.00 | 0.00 | 59 | 1009.9 |
| 20260831050323 | 62 | 355 | 0.0 | 0.0 | 0.00 | 0.00 | 0.00 | 56 | 1009.9 |
| 20260831045320 | 63 | 355 | 0.0 | 0.0 | 0.00 | 0.00 | 0.00 | 57 | 1010.1 |
| 20260831044339 | 64 | 355 | 0.0 | 0.0 | 0.00 | 0.00 | 0.00 | 56 | 1010.2 |
| 20260831043318 | 64 | 355 | 0.0 | 0.0 | 0.00 | 0.00 | 0.00 | 56 | 1010.2 |
| 20260831042317 | 66 | 355 | 0.0 | 0.0 | 0.00 | 0.00 | 0.00 | 55 | 1009.9 |
| 20260831041336 | 66 | 355 | 0.0 | 0.0 | 0.00 | 0.00 | 0.00 | 53 | 1009.9 |
| 20260831040314 | 67 | 355 | 0.0 | 0.0 | 0.00 | 0.00 | 0.00 | 52 | 1009.9 |
| 20260831035311 | 68 | 5 | 0.0 | 0.0 | 0.00 | 0.00 | 0.00 | 49 | 1009.8 |
| 20260831034312 | 69 | 5 | 0.0 | 0.0 | 0.00 | 0.00 | 0.00 | 43 | 1009.5 |
| 20260831033329 | 71 | 5 | 0.0 | 0.0 | 0.00 | 0.00 | 0.00 | 40 | 1009.5 |
| 20260831032326 | 72 | 5 | 0.0 | 8.0 | 0.00 | 0.00 | 0.00 | 37 | 1009.5 |
| 20260831031324 | 72 | 44 | 0.0 | 5.0 | 0.00 | 0.00 | 0.00 | 36 | 1009.4 |
| 20260831030324 | 73 | 5 | 0.0 | 4.0 | 0.00 | 0.00 | 0.00 | 35 | 1009.4 |
| 20260831025321 | 74 | 309 | 1.0 | 5.0 | 0.00 | 0.00 | 0.00 | 34 | 1009.3 |
| 20260831024340 | 75 | 14 | 0.0 | 6.0 | 0.00 | 0.00 | 0.00 | 33 | 1009.3 |
| 20260831023321 | 75 | 315 | 3.0 | 7.0 | 0.00 | 0.00 | 0.00 | 32 | 1009.3 |
| 20260831022321 | 76 | 11 | 2.0 | 9.0 | 0.00 | 0.00 | 0.00 | 31 | 1009.3 |
| 20260831021321 | 76 | 328 | 3.0 | 10.0 | 0.00 | 0.00 | 0.00 | 31 | 1009.3 |
| 20260831020320 | 77 | 26 | 1.0 | 9.0 | 0.00 | 0.00 | 0.00 | 31 | 1009.3 |
| 20260831015319 | 78 | 329 | 4.0 | 9.0 | 0.00 | 0.00 | 0.00 | 29 | 1009.4 |
| 20260831014318 | 79 | 330 | 1.0 | 11.0 | 0.00 | 0.00 | 0.00 | 29 | 1009.4 |
| 20260831013318 | 79 | 322 | 0.0 | 7.0 | 0.00 | 0.00 | 0.00 | 27 | 1009.4 |
| 20260831012335 | 81 | 345 | 3.0 | 13.0 | 0.00 | 0.00 | 0.00 | 27 | 1009.5 |
| 20260831011313 | 81 | 34 | 2.0 | 7.0 | 0.00 | 0.00 | 0.00 | 26 | 1009.5 |
| 20260831010334 | 81 | 360 | 3.0 | 10.0 | 0.00 | 0.00 | 0.00 | 26 | 1009.5 |
| 20260831005312 | 82 | 337 | 3.0 | 8.0 | 0.00 | 0.00 | 0.00 | 26 | 1009.8 |
| 20260831004312 | 82 | 342 | 4.0 | 10.0 | 0.00 | 0.00 | 0.00 | 25 | 1009.8 |
| 20260831003312 | 82 | 319 | 0.0 | 9.0 | 0.00 | 0.00 | 0.00 | 26 | 1009.8 |
| 20260831002311 | 82 | 23 | 3.0 | 10.0 | 0.00 | 0.00 | 0.00 | 25 | 1009.9 |
| 20260831001312 | 83 | 355 | 3.0 | 9.0 | 0.00 | 0.00 | 0.00 | 24 | 1010.0 |
| 20260831000352 | 83 | 360 | 4.0 | 12.0 | 0.00 | 0.00 | 0.00 | 24 | 1010.0 |
| 20260830235328 | 83 | 355 | 3.0 | 8.0 | 0.00 | 0.00 | 0.00 | 25 | 1010.2 |
| 20260830234311 | 83 | 336 | 2.0 | 8.0 | 0.00 | 0.00 | 0.00 | 25 | 1010.4 |
| 20260830233330 | 83 | 344 | 3.0 | 10.0 | 0.00 | 0.00 | 0.00 | 25 | 1010.4 |
| 20260830232330 | 82 | 306 | 5.0 | 10.0 | 0.00 | 0.00 | 0.00 | 25 | 1010.5 |
| 20260830231351 | 82 | 311 | 5.0 | 9.0 | 0.00 | 0.00 | 0.00 | 26 | 1010.8 |
| 20260830230327 | 82 | 351 | 4.0 | 11.0 | 0.00 | 0.00 | 0.00 | 27 | 1010.8 |
| 20260830225325 | 82 | 351 | 4.0 | 9.0 | 0.00 | 0.00 | 0.00 | 27 | 1010.9 |
| 20260830224324 | 82 | 350 | 2.0 | 9.0 | 0.00 | 0.00 | 0.00 | 27 | 1011.2 |
| 20260830223326 | 81 | 346 | 3.0 | 13.0 | 0.00 | 0.00 | 0.00 | 28 | 1011.2 |
| 20260830222324 | 81 | 311 | 2.0 | 10.0 | 0.00 | 0.00 | 0.00 | 28 | 1011.4 |
| 20260830221322 | 82 | 308 | 4.0 | 9.0 | 0.00 | 0.00 | 0.00 | 28 | 1011.7 |
| 20260830220321 | 81 | 337 | 1.0 | 9.0 | 0.00 | 0.00 | 0.00 | 30 | 1011.7 |
| 20260830215320 | 81 | 70 | 2.0 | 12.0 | 0.00 | 0.00 | 0.00 | 31 | 1012.0 |
| 20260830214319 | 80 | 314 | 3.0 | 9.0 | 0.00 | 0.00 | 0.00 | 31 | 1012.1 |
| 20260830213317 | 80 | 355 | 2.0 | 8.0 | 0.00 | 0.00 | 0.00 | 33 | 1012.1 |
| 20260830212315 | 79 | 19 | 1.0 | 8.0 | 0.00 | 0.00 | 0.00 | 33 | 1012.5 |
| 20260830211315 | 79 | 26 | 2.0 | 7.0 | 0.00 | 0.00 | 0.00 | 33 | 1012.6 |
| 20260830210314 | 79 | 5 | 3.0 | 8.0 | 0.00 | 0.00 | 0.00 | 36 | 1012.6 |
| 20260830205353 | 78 | 338 | 2.0 | 7.0 | 0.00 | 0.00 | 0.00 | 37 | 1012.9 |
| 20260830204314 | 78 | 5 | 1.0 | 8.0 | 0.00 | 0.00 | 0.00 | 37 | 1013.0 |
| 20260830203328 | 77 | 331 | 0.0 | 9.0 | 0.00 | 0.00 | 0.00 | 38 | 1013.0 |
| 20260830202330 | 76 | 355 | 2.0 | 7.0 | 0.00 | 0.00 | 0.00 | 39 | 1013.4 |
| 20260830201349 | 75 | 346 | 1.0 | 7.0 | 0.00 | 0.00 | 0.00 | 41 | 1013.5 |
| 20260830200329 | 75 | 61 | 0.0 | 4.0 | 0.00 | 0.00 | 0.00 | 42 | 1013.5 |
| 20260830195327 | 75 | 301 | 1.0 | 10.0 | 0.00 | 0.00 | 0.00 | 42 | 1013.6 |
| 20260830194327 | 75 | 342 | 1.0 | 7.0 | 0.00 | 0.00 | 0.00 | 42 | 1014.0 |
| 20260830193346 | 74 | 60 | 1.0 | 7.0 | 0.00 | 0.00 | 0.00 | 44 | 1014.0 |
| 20260830192323 | 73 | 71 | 0.0 | 7.0 | 0.00 | 0.00 | 0.00 | 46 | 1014.0 |
| 20260830191323 | 73 | 350 | 1.0 | 6.0 | 0.00 | 0.00 | 0.00 | 44 | 1014.2 |
| 20260830190323 | 73 | 25 | 1.0 | 6.0 | 0.00 | 0.00 | 0.00 | 46 | 1014.2 |
| 20260830185320 | 72 | 275 | 3.0 | 8.0 | 0.00 | 0.00 | 0.00 | 48 | 1014.5 |
| 20260830184319 | 72 | 306 | 1.0 | 8.0 | 0.00 | 0.00 | 0.00 | 48 | 1014.6 |
| 20260830183317 | 71 | 327 | 2.0 | 8.0 | 0.00 | 0.00 | 0.00 | 49 | 1014.6 |
| 20260830182316 | 70 | 333 | 0.0 | 5.0 | 0.00 | 0.00 | 0.00 | 54 | 1014.9 |
| 20260830181316 | 68 | 304 | 0.0 | 3.0 | 0.00 | 0.00 | 0.00 | 55 | 1015.0 |
| 20260830180315 | 67 | 157 | 0.0 | 0.0 | 0.00 | 0.00 | 0.00 | 56 | 1015.0 |
| 20260830175312 | 67 | 128 | 0.0 | 1.0 | 0.00 | 0.00 | 0.00 | 56 | 1015.1 |
| 20260830174312 | 67 | 327 | 0.0 | 1.0 | 0.00 | 0.00 | 0.00 | 57 | 1015.2 |
| 20260830173332 | 67 | 323 | 0.0 | 1.0 | 0.00 | 0.00 | 0.00 | 59 | 1015.2 |
| 20260830172352 | 65 | 79 | 0.0 | 0.0 | 0.00 | 0.00 | 0.00 | 63 | 1015.4 |
| 20260830171314 | 64 | 97 | 0.0 | 0.0 | 0.00 | 0.00 | 0.00 | 64 | 1015.6 |
| 20260830170315 | 64 | 265 | 0.0 | 0.0 | 0.00 | 0.00 | 0.00 | 63 | 1015.6 |
| 20260830165314 | 62 | 267 | 0.0 | 0.0 | 0.00 | 0.00 | 0.00 | 66 | 1015.6 |
| 20260830164314 | 62 | 207 | 0.0 | 0.0 | 0.00 | 0.00 | 0.00 | 69 | 1015.7 |
| 20260830163331 | 61 | 170 | 0.0 | 0.0 | 0.00 | 0.00 | 0.00 | 70 | 1015.7 |
| 20260830162327 | 61 | 246 | 0.0 | 0.0 | 0.00 | 0.00 | 0.00 | 69 | 1015.9 |
| 20260830161326 | 60 | 304 | 0.0 | 0.0 | 0.00 | 0.00 | 0.00 | 73 | 1016.1 |
| 20260830160327 | 58 | 304 | 0.0 | 0.0 | 0.00 | 0.00 | 0.00 | 77 | 1016.1 |
| 20260830155324 | 56 | 304 | 0.0 | 0.0 | 0.00 | 0.00 | 0.00 | 81 | 1016.2 |
| 20260830154324 | 54 | 304 | 0.0 | 0.0 | 0.00 | 0.00 | 0.00 | 88 | 1016.2 |
| 20260830153325 | 52 | 304 | 0.0 | 0.0 | 0.00 | 0.00 | 0.00 | 92 | 1016.2 |
| 20260830152326 | 50 | 304 | 0.0 | 0.0 | 0.00 | 0.00 | 0.00 | 95 | 1016.3 |
| 20260830151325 | 50 | 304 | 0.0 | 0.0 | 0.00 | 0.00 | 0.00 | 96 | 1016.3 |
| 20260830150323 | 49 | 304 | 0.0 | 0.0 | 0.00 | 0.00 | 0.00 | 97 | 1016.3 |
| 20260830145321 | 48 | 304 | 0.0 | 0.0 | 0.00 | 0.00 | 0.00 | 97 | 1016.4 |
| 20260830144319 | 47 | 295 | 0.0 | 0.0 | 0.00 | 0.00 | 0.00 | 97 | 1016.5 |
| 20260830143324 | 47 | 295 | 0.0 | 0.0 | 0.00 | 0.00 | 0.00 | 97 | 1016.5 |
| 20260830142322 | 47 | 295 | 0.0 | 0.0 | 0.00 | 0.00 | 0.00 | 96 | 1016.3 |
| 20260830141321 | 46 | 295 | 0.0 | 0.0 | 0.00 | 0.00 | 0.00 | 96 | 1016.2 |
| 20260830140340 | 46 | 295 | 0.0 | 0.0 | 0.00 | 0.00 | 0.00 | 96 | 1016.2 |
| 20260830135319 | 46 | 295 | 0.0 | 0.0 | 0.00 | 0.00 | 0.00 | 96 | 1016.1 |
| 20260830134340 | 46 | 295 | 0.0 | 0.0 | 0.00 | 0.00 | 0.00 | 96 | 1016.1 |
| 20260830133319 | 47 | 295 | 0.0 | 0.0 | 0.00 | 0.00 | 0.00 | 96 | 1016.1 |
| 20260830132318 | 47 | 295 | 0.0 | 0.0 | 0.00 | 0.00 | 0.00 | 96 | 1016.1 |
| 20260830131317 | 47 | 295 | 0.0 | 0.0 | 0.00 | 0.00 | 0.00 | 95 | 1016.0 |
| 20260830130317 | 47 | 295 | 0.0 | 0.0 | 0.00 | 0.00 | 0.00 | 95 | 1016.0 |
| 20260830125316 | 47 | 295 | 0.0 | 0.0 | 0.00 | 0.00 | 0.00 | 95 | 1015.9 |
| 20260830124314 | 47 | 295 | 0.0 | 0.0 | 0.00 | 0.00 | 0.00 | 95 | 1016.0 |
| 20260830123314 | 47 | 295 | 0.0 | 0.0 | 0.00 | 0.00 | 0.00 | 95 | 1016.0 |
| 20260830122314 | 48 | 295 | 0.0 | 0.0 | 0.00 | 0.00 | 0.00 | 95 | 1015.8 |
| 20260830121313 | 48 | 295 | 0.0 | 0.0 | 0.00 | 0.00 | 0.00 | 95 | 1015.8 |
| 20260830120313 | 48 | 295 | 0.0 | 0.0 | 0.00 | 0.00 | 0.00 | 94 | 1015.8 |
| 20260830115315 | 48 | 295 | 0.0 | 0.0 | 0.00 | 0.00 | 0.00 | 94 | 1015.7 |
| 20260830114315 | 49 | 295 | 0.0 | 0.0 | 0.00 | 0.00 | 0.00 | 94 | 1015.7 |
| 20260830113315 | 49 | 295 | 0.0 | 0.0 | 0.00 | 0.00 | 0.00 | 94 | 1015.7 |
| 20260830112313 | 49 | 295 | 0.0 | 0.0 | 0.00 | 0.00 | 0.00 | 94 | 1015.6 |
| 20260830111314 | 49 | 295 | 0.0 | 0.0 | 0.00 | 0.00 | 0.00 | 94 | 1015.6 |
| 20260830110313 | 50 | 295 | 0.0 | 0.0 | 0.00 | 0.00 | 0.00 | 94 | 1015.6 |
| 20260830105331 | 50 | 295 | 0.0 | 0.0 | 0.00 | 0.00 | 0.00 | 93 | 1015.6 |
| 20260830104331 | 50 | 295 | 0.0 | 0.0 | 0.00 | 0.00 | 0.00 | 93 | 1015.6 |
| 20260830103332 | 50 | 295 | 0.0 | 0.0 | 0.00 | 0.00 | 0.00 | 93 | 1015.6 |
| 20260830102331 | 50 | 295 | 0.0 | 0.0 | 0.00 | 0.00 | 0.00 | 93 | 1015.6 |